User: anonymous   Login
Location: Bieg
(49.3499°N, 10.3835°E)
Time: 00:32:53
(UTC+00:00)
Language:

Cosmos 724 - Orbit

View from above orbital plane
View from above orbital plane
View from above satellite
View from above satellite

Ground track
Ground track

The orbit data is extracted from the following two-line orbital elements,

1 07727U 75025A   24204.61836130  .00000014  00000-0  69711-4 0  9995
2 07727  65.5900  62.1862 0045647  76.3854 284.2297 13.99032292518529
Epoch (UTC): 22 July 2024 14:50:26
Eccentricity: 0.0045647
inclination: 65.5900°
perigee height: 864 km
apogee height: 930 km
right ascension of ascending node: 62.1862°
argument of perigee: 76.3854°
revolutions per day: 13.99032292
mean anomaly at epoch: 284.2297°
orbit number at epoch: 51852

The dashed part of the orbit path shows where the satellite is in the earth's shadow,  

DLR